Lamar, CO

3:13 PM MDT on April 20, 2018 (GMT -0600)
Lamar Municipal

Weather History for KLAA - March, 2013

Change the Weather History Date:

Saturday, March 9, 2013

  Actual Average Record
Temperature  
Mean Temperature 43 °F 40 °F  
Max Temperature 54 °F 56 °F 82 °F (1972)
Min Temperature 31 °F 24 °F -2 °F (1924)
Degree Days  
Heating Degree Days 22 25  
Month to date heating degree days 202 237  
Since 1 July heating degree days 4301 4548  
Cooling Degree Days 0 0  
Month to date cooling degree days 0 0  
Year to date cooling degree days 0 0  
Moisture  
Dew Point 31 °F    
Average Humidity 73    
Maximum Humidity 96    
Minimum Humidity 50    
Precipitation  
Precipitation 0.02 in 0.02 in 0.68 in (1975)
Month to date precipitation 0.03 0.23  
Year to date precipitation 0.15 0.90  
Sea Level Pressure  
Sea Level Pressure 29.67 in    
Wind  
Wind Speed 17 mph (NNW)    
Max Wind Speed 25 mph    
Max Gust Speed 36 mph    
Visibility 4 miles    
Events Fog , Rain , Snow    
T = Trace of Precipitation, MM = Missing Value Source: NWS Daily Summary

Daily Weather History Graph

Daily Weather History Graph

Search for Another Location

Airport or City:

Astronomy

Mar. 09, 2013 Rise Set
Actual Time 6:10 AM MST 5:52 PM MST
Civil Twilight 5:44 AM MST 6:18 PM MST
Nautical Twilight 5:13 AM MST 6:49 PM MST
Astronomical Twilight 4:43 AM MST 7:19 PM MST
Moon 4:34 AM MST (3/9) 3:58 PM MST (3/9)
Length of Visible Light 12h 34m
Length of Day
11h 41m
Waning Crescent, 5% of the Moon is Illuminated
Mar 9
Waning Crescent
Mar 11
New
Mar 19
First Quarter
Mar 27
Full
Apr 2
Last Quarter

Hourly Weather History & Observations

Time (MST) Temp. Windchill Dew Point Humidity Pressure Visibility Wind Dir Wind Speed Gust Speed Precip Events Conditions
12:53 AM 50.0 °F - 34.0 °F 54% 29.50 in 10.0 mi South 12.7 mph - N/A   Clear
1:53 AM 46.9 °F - 34.0 °F 61% 29.49 in 10.0 mi South 11.5 mph - N/A   Clear
2:53 AM 45.0 °F 38.9 °F 33.1 °F 63% 29.45 in 10.0 mi South 12.7 mph - N/A   Clear
3:53 AM 37.9 °F 31.5 °F 30.0 °F 73% 29.46 in 10.0 mi SSW 9.2 mph - N/A   Clear
4:53 AM 37.9 °F 33.5 °F 30.0 °F 73% 29.46 in 10.0 mi SSW 5.8 mph - N/A   Clear
5:53 AM 32.0 °F 27.5 °F 27.0 °F 82% 29.50 in 9.0 mi NW 4.6 mph - N/A   Clear
6:34 AM 30.2 °F 22.6 °F 28.4 °F 93% 29.55 in 2.0 mi NW 8.1 mph - N/A   Scattered Clouds
6:37 AM 32.0 °F 25.6 °F 28.4 °F 87% 29.55 in 1.2 mi NNW 6.9 mph - N/A   Mostly Cloudy
6:43 AM 32.0 °F 27.5 °F 30.2 °F 93% 29.55 in 0.8 mi NNW 4.6 mph - N/A   Mostly Cloudy
6:53 AM 33.1 °F 28.7 °F 32.0 °F 96% 29.49 in 1.2 mi West 4.6 mph - N/A   Overcast
6:56 AM 33.8 °F 29.6 °F 30.2 °F 87% 29.55 in 2.0 mi West 4.6 mph - N/A   Overcast
7:05 AM 33.8 °F 27.7 °F 32.0 °F 93% 29.55 in 3.0 mi WNW 6.9 mph - N/A   Overcast
7:12 AM 33.8 °F 27.0 °F 33.8 °F 100% 29.55 in 2.0 mi West 8.1 mph - N/A   Overcast
7:26 AM 35.6 °F 30.7 °F 33.8 °F 93% 29.56 in 4.0 mi West 5.8 mph - N/A   Overcast
7:49 AM 37.4 °F 28.9 °F 33.8 °F 87% 29.57 in 6.0 mi NNW 13.8 mph - N/A   Haze
7:53 AM 39.0 °F 31.4 °F 34.0 °F 82% 29.52 in 6.0 mi NNW 12.7 mph - N/A   Haze
8:53 AM 46.0 °F 39.3 °F 37.0 °F 71% 29.50 in 8.0 mi North 16.1 mph - N/A   Overcast
9:05 AM 46.4 °F 39.5 °F 37.4 °F 71% 29.57 in 8.0 mi North 17.3 mph 23.0 mph N/A   Overcast
9:53 AM 46.9 °F - 36.0 °F 66% 29.51 in 6.0 mi North 16.1 mph - N/A   Haze
10:53 AM 46.0 °F 38.5 °F 35.1 °F 66% 29.53 in 9.0 mi North 19.6 mph - N/A   Overcast
11:53 AM 44.1 °F 36.2 °F 34.0 °F 68% 29.55 in 8.0 mi North 18.4 mph 24.2 mph N/A   Overcast
12:53 PM 39.9 °F 29.5 °F 34.0 °F 79% 29.55 in 7.0 mi North 24.2 mph - 0.01 in Rain Light Rain
1:53 PM 37.9 °F 28.5 °F 32.0 °F 79% 29.59 in 8.0 mi North 17.3 mph - 0.00 in Rain Light Rain
2:53 PM 37.0 °F 27.4 °F 32.0 °F 82% 29.64 in 6.0 mi North 17.3 mph 25.3 mph 0.01 in   Haze
3:41 PM 35.6 °F 24.0 °F 32.0 °F 87% 29.67 in 6.0 mi North 23.0 mph 29.9 mph 0.00 in   Overcast
3:53 PM 35.1 °F 23.5 °F 30.9 °F 85% 29.68 in 6.0 mi North 21.9 mph 29.9 mph 0.00 in   Overcast
4:01 PM 33.8 °F 20.8 °F 30.2 °F 87% 29.67 in 4.0 mi North 26.5 mph 34.5 mph N/A   Overcast
4:15 PM 33.8 °F 21.6 °F 30.2 °F 87% 29.67 in 1.8 mi North 23.0 mph 33.4 mph 0.00 in Snow Light Snow
4:21 PM 33.8 °F 20.8 °F 30.2 °F 87% 29.68 in 1.0 mi North 26.5 mph 34.5 mph 0.00 in Snow Light Snow
4:25 PM 33.8 °F 20.8 °F 30.2 °F 87% 29.67 in 0.8 mi North 26.5 mph 34.5 mph 0.00 in Snow Light Snow
4:51 PM 32.0 °F 19.2 °F 30.2 °F 93% 29.69 in 0.5 mi North 23.0 mph 33.4 mph 0.00 in Fog , Snow Snow
4:53 PM 32.0 °F 19.2 °F 30.0 °F 92% 29.70 in 0.5 mi North 23.0 mph 33.4 mph 0.00 in Fog , Snow Snow
5:30 PM 32.0 °F 22.1 °F 30.2 °F 93% 29.71 in 0.5 mi North 13.8 mph - 0.01 in Fog , Snow Snow
5:38 PM 33.8 °F 22.8 °F 30.2 °F 87% 29.72 in 0.5 mi North 18.4 mph 25.3 mph 0.01 in Fog , Snow Snow
5:50 PM 33.8 °F 22.2 °F 30.2 °F 87% 29.72 in 0.8 mi North 20.7 mph 27.6 mph 0.01 in Snow Light Snow
5:53 PM 33.1 °F 20.3 °F 30.0 °F 89% 29.75 in 1.0 mi North 24.2 mph 31.1 mph 0.01 in Snow Light Snow
5:55 PM 33.8 °F 21.3 °F 30.2 °F 87% 29.72 in 1.2 mi North 24.2 mph 31.1 mph 0.00 in Snow Light Snow
6:29 PM 32.0 °F 17.4 °F 30.2 °F 93% 29.75 in 1.2 mi North 31.1 mph 50.6 mph 0.00 in Snow Light Snow
6:37 PM 32.0 °F 17.2 °F 30.2 °F 93% 29.75 in 1.0 mi North 32.2 mph 40.3 mph 0.00 in Snow Light Snow
6:43 PM 32.0 °F 17.4 °F 30.2 °F 93% 29.76 in 0.8 mi North 31.1 mph 40.3 mph 0.00 in Snow Light Snow
6:53 PM 32.0 °F 18.9 °F 30.0 °F 92% 29.80 in 0.8 mi North 24.2 mph 43.7 mph 0.00 in Snow Light Snow
7:03 PM 32.0 °F 17.9 °F 30.2 °F 93% 29.77 in 0.8 mi North 28.8 mph 36.8 mph 0.00 in Snow Light Snow
7:10 PM 32.0 °F 17.4 °F 28.4 °F 87% 29.78 in 1.0 mi North 31.1 mph 46.0 mph 0.00 in Snow Light Snow
7:17 PM 32.0 °F 17.2 °F 28.4 °F 87% 29.78 in 1.2 mi North 32.2 mph 42.6 mph 0.00 in Snow Light Snow
7:29 PM 33.8 °F 20.1 °F 28.4 °F 81% 29.79 in 1.5 mi North 29.9 mph 44.9 mph 0.00 in Snow Light Snow
7:50 PM 33.8 °F - 28.4 °F 81% 29.81 in 2.0 mi North - - 0.00 in Snow Light Snow
7:53 PM 33.1 °F - 28.9 °F 85% 29.83 in - North - - 0.00 in   Unknown
8:53 PM 33.1 °F 21.5 °F 28.9 °F 85% 29.87 in - North 19.6 mph - N/A   Unknown
9:06 PM 33.8 °F 22.5 °F 30.2 °F 87% 29.87 in 2.5 mi NNW 19.6 mph 25.3 mph 0.00 in Snow Light Snow
9:15 PM 33.8 °F 22.5 °F 30.2 °F 87% 29.88 in 5.0 mi North 19.6 mph 26.5 mph 0.00 in   Mist
9:24 PM 33.8 °F 22.2 °F 28.4 °F 81% 29.89 in 10.0 mi North 20.7 mph 31.1 mph 0.00 in   Overcast
9:53 PM 34.0 °F 23.0 °F 28.9 °F 82% 29.90 in 10.0 mi North 18.4 mph 27.6 mph 0.00 in   Overcast
10:39 PM 33.8 °F 22.2 °F 28.4 °F 81% 29.92 in 10.0 mi NNW 20.7 mph 31.1 mph N/A   Overcast
10:53 PM 34.0 °F 22.7 °F 27.0 °F 75% 29.93 in 10.0 mi NNW 19.6 mph 27.6 mph N/A   Overcast
11:53 PM 33.1 °F 20.1 °F 24.1 °F 70% 29.98 in 10.0 mi NNW 25.3 mph 29.9 mph N/A   Overcast